Regional Weather Roundup
Issued by NWS San Angelo, TX

Home | Current Version | Previous Version | Text Only | Print | Product List | Glossary On
Versions: 1 2 3 4 5 6 7 8 9 10 11 12 13 14 15 16 17 18 19 20 21 22 23 24 25 26 27 28 29 30 31 32 33 34 35 36 37 38 39 40 41 42 43 44 45 46 47 48 49 50
964
ASUS44 KSJT 110610
RWRSJT
WEST CENTRAL TEXAS REGIONAL WEATHER ROUNDUP
NATIONAL WEATHER SERVICE SAN ANGELO TX
1200 AM CST SUN DEC 11 2016

NOTE: "FAIR" INDICATES FEW OR NO CLOUDS BELOW 12,000 FEET WITH NO
SIGNIFICANT WEATHER AND/OR OBSTRUCTIONS TO VISIBILITY.

TXZ049-054-064>066-071>073-076>078-098-099-113-114-127-128-139-140-
154-155-168>170-110700
...LOCATIONS ACROSS WEST CENTRAL TEXAS...

CITY           SKY/WX    TMP DP  RH WIND       PRES   REMARKS
SAN ANGELO     CLOUDY    52  49  89 S22G32    30.06F
ABILENE        CLOUDY    52  49  89 S23G37    30.01F
DYESS AFB      CLOUDY    53  47  80 S29G38    29.98S
JUNCTION       CLOUDY    50  48  93 SW5       30.13F
SWEETWATER     CLOUDY    52  49  90 S26G37    30.01F
BROWNWOOD      CLOUDY    50  48  93 S15       30.10F
COLEMAN        CLOUDY    51  48  87 S13       30.09F
SONORA         FOG       48  48 100 S8        30.16F VSB 1
OZONA          CLOUDY    48  46  93 MISG      30.12F FOG
BRADY          NOT AVBL
$$

TEXAS PANHANDLE/OKLAHOMA PANHANDLE

CITY           SKY/WX    TMP DP  RH WIND       PRES   REMARKS
AMARILLO       CLOUDY    49  35  58 SW20G26   29.80F
BORGER         CLOUDY    57  32  38 SW18G31   29.73F
CANADIAN       CLOUDY    49  41  75 SW13G18   29.74F
DALHART        CLOUDY    40  25  55 SW12      29.75F WCI  33
DUMAS          CLOUDY    49  27  42 SW20G26   29.74F
GUYMON         NOT AVBL
HEREFORD       CLOUDY    48  37  64 SW18      29.84F
PAMPA          CLOUDY    51  38  62 SW17G25   29.78F
PERRYTON       CLOUDY    51  36  57 SW17      29.70S
$$

SOUTHERN PANHANDLE/SOUTH PLAINS/ROLLING PLAINS

CITY           SKY/WX    TMP DP  RH WIND       PRES   REMARKS
LUBBOCK        CLOUDY    45  39  79 SW20      29.92F WCI  37
SNYDER         CLOUDY    45  43  95 S15G22    30.00F WCI  38
CHILDRESS      CLOUDY    47  40  76 S16       29.87F
SEMINOLE       CLOUDY    37  36  97 SW5       29.98F WCI  34
$$

PERMIAN BASIN

CITY           SKY/WX    TMP DP  RH WIND       PRES   REMARKS
MIDLAND        CLOUDY    43  38  82 S9        30.01F WCI  38
ODESSA         CLOUDY    44  38  79 SW13      30.01F WCI  38
WINK           CLOUDY    39  39 100 S6        30.01S WCI  35
$$

FAR WEST/SOUTHWEST MOUNTAINS/TRANS PECOS

CITY           SKY/WX    TMP DP  RH WIND       PRES   REMARKS
ALPINE         CLEAR     49  41  74 S7        30.18S
DRYDEN           N/A     43  42  97 SE3       30.11F
EL PASO        PTCLDY    47  36  65 S8        30.09R
FORT STOCKTON  NOT AVBL
GUADALUPE PASS CLOUDY    44  38  79 SW22      30.08S WCI  35
MARFA          CLEAR     32  30  92 N6        30.17F WCI  26
PECOS          CLOUDY    36  35  95 SE3       30.03R
$$

DALLAS/FORT WORTH METROPLEX

CITY           SKY/WX    TMP DP  RH WIND       PRES   REMARKS
DFW AIRPORT    CLOUDY    49  36  61 S20G26    30.11F
FTW MEACHAM    CLOUDY    49  39  68 S18       30.10F
DAL-EXECUTIVE  CLOUDY    48  35  60 S10       30.13F
GRAND PRAIRIE  CLOUDY    48  36  62 S12G20    30.15F
ADDISON        CLOUDY    49  36  61 S14G21    30.14F
MESQUITE       CLOUDY    47  31  53 S13       30.16F
LANCASTER      CLOUDY    49  32  52 S10       30.16F
$$

NORTH CENTRAL TEXAS

CITY           SKY/WX    TMP DP  RH WIND       PRES   REMARKS
SHRMAN/DENISON CLOUDY    47  35  61 S18G25    30.08F
GAINESVILLE    CLOUDY    47  36  66 S21G29    30.08F WCI  39
BRIDGEPORT     CLOUDY    48  44  85 S13G18    30.09F
DENTON         CLOUDY    48  38  68 S21G29    30.09F
WAXAHACHIE     CLOUDY    47  37  68 S12G17    30.16F
GRANBURY       CLOUDY    50  44  80 SE8G16    30.12F
$$

WESTERN NORTH TEXAS

CITY           SKY/WX    TMP DP  RH WIND       PRES   REMARKS
WICHITA FALLS  CLOUDY    51  45  79 S24G35    29.97S
VERNON         CLOUDY    53  44  73 S18G28    29.93F
BRECKENRIDGE   CLOUDY    54  47  80 S20G25    30.03S
COMANCHE       CLOUDY    49  49 100 S14G24    30.10S
$$

CENTRAL AND SOUTH CENTRAL TEXAS

CITY           SKY/WX    TMP DP  RH WIND       PRES   REMARKS
AUSTIN/BERGSTM DRIZZLE   51  51 100 CALM      30.18F FOG
WACO           CLOUDY    49  45  86 S18       30.17F
HILLSBORO      CLOUDY    49  42  75 S17       30.15F
TEMPLE         CLOUDY    49  48  97 S13       30.17F FOG
KILLEEN-GRAY   CLOUDY    49  48  98 S13       30.14F FOG
FORT HOOD      CLOUDY    49  49 100 S9        30.12F
GEORGETOWN     CLOUDY    50  46  87 S8        30.17F
LAGO VISTA     DRZL/FOG  51  50  97 SE7       30.17F VSB 1/2
SAN MARCOS     CLOUDY    50  50 100 CALM      30.19F
NEW BRAUNFELS  LGT RAIN  51  49  92 CALM      30.16F FOG
RANDOLPH AFB   CLOUDY    50  50 100 N3        30.16F FOG
SAN ANTONIO    DRZL/FOG  49  47  93 CALM      30.18F VSB 1/2
STINSON        LGT RAIN  51  48  89 CALM      30.17F FOG
PLEASANTON     NOT AVBL
LA GRANGE      CLOUDY    55  48  77 SE5       30.16F
GIDDINGS       CLOUDY    53  45  76 SE5       30.21F
$$

EAST TEXAS

CITY           SKY/WX    TMP DP  RH WIND       PRES   REMARKS
PARIS          CLOUDY    46  30  53 S15       30.16F
CLARKSVILLE    NOT AVBL
TYLER          CLOUDY    50  29  44 S16       30.18F
LONGVIEW       CLOUDY    50  33  52 S12       30.21F
PALESTINE      CLOUDY    50  33  52 SE9       30.21F
NACOGDOCHES    CLOUDY    48  30  49 SE13      30.23F
$$

TEXAS HILL COUNTRY AND EDWARDS PLATEAU

CITY           SKY/WX    TMP DP  RH WIND       PRES   REMARKS
LLANO          CLOUDY   N/A N/A N/A CALM      30.18F HAZE
HORSESHOE BAY  CLOUDY    49  49  97 SE6       30.16F FOG
KERRVILLE      DRIZZLE   45  44  97 CALM      30.17F
FREDERICKSBRG  CLOUDY    49  48  97 S7        30.16F FOG
ROCKSPRINGS    FOG       46  46 100 S10       30.16F VSB 1/4
HONDO          LGT RAIN  48  46  93 NW5       30.19F
UVALDE         DRIZZLE   45  45  99 CALM      30.19F
DEL RIO        CLOUDY    46  45  96 SE8       30.16F
$$

SOUTHEAST TEXAS

CITY           SKY/WX    TMP DP  RH WIND       PRES   REMARKS
COLLEGE STN    CLOUDY    51  38  60 SE7       30.19F
CALDWELL       NOT AVBL
CROCKETT       CLOUDY    48  32  53 SE9       30.24F
BRENHAM        CLOUDY    54  42  64 SE3       30.20F
HUNTSVILLE     CLOUDY    51  35  54 SE9       30.20F
CONROE         CLOUDY    50  37  61 SE7       30.22F
HOUSTON BUSH   CLOUDY    52  41  66 E8        30.22F
HOUSTON HOBBY  CLOUDY    59  51  75 E7        30.21F
PERLAND        CLOUDY    62  54  74 SE9       30.21F
WHARTON        CLOUDY    56  51  85 E5        30.19F
$$

THE UPPER TEXAS COAST

CITY           SKY/WX    TMP DP  RH WIND       PRES   REMARKS
ORANGE         CLOUDY    51  37  58 E8        30.29F
PORT ARTHUR    CLOUDY    53  43  68 E9        30.25F
GALVESTON      CLOUDY    65  59  81 SE14      30.23F
ANGLETON       CLOUDY    65  59  81 SE6       30.20F
BAY CITY       CLOUDY    65  61  86 SE8       30.18F
$$

TEXAS COASTAL BEND, RIO GRANDE PLAINS DEEP SOUTH TEXAS

CITY           SKY/WX    TMP DP  RH WIND       PRES   REMARKS
VICTORIA       CLOUDY    57  54  89 E5        30.18F
BEEVILLE       CLOUDY    58  58 100 CALM      30.16F
ROCKPORT       CLOUDY    67  61  81 S8        30.15F
PORT ARANSAS   CLOUDY    64  63  95 S8        30.15F
PORT LAVACA    CLOUDY    57  57 100 CALM      30.17F
CORPUS CHRISTI MOCLDY    56  56 100 SW6       30.16F
KINGSVILLE NAS CLOUDY    53  53 100 SW5       30.16F FOG
COTULLA        LGT RAIN  48  46  93 NW5       30.19F FOG
LAREDO         LGT RAIN  48  47  96 E5        30.17F
BROWNSVILLE    CLOUDY    54  49  83 W6        30.19F
PORT ISABEL    CLOUDY    55  50  83 NW6       30.17F
HEBBRONVILLE   FOG       49  48  99 CALM      30.17F VSB 3/4
MCALLEN        CLOUDY    52  48  86 W3        30.19F
WESLACO        CLOUDY    52  48  88 W6        30.18F
FALFURRIAS     CLOUDY    51  50  95 W3        30.17F
EDINBURG       CLOUDY    54  49  83 CALM      30.19F
$$




USA.gov is the U.S. government's official web portal to all federal, state and local government web resources and services.